UAL2005 VOHS-OBBI

Flight info

Callsign UAL2005
Flight time N/A
Altitude 34000
Route TAMIV5 APUSU DCT BBB DCT SUGID N571 VUSET/N0482F360 N571 MENSA/N0483F340 N571 ALPOB L768 ORDIG
Aircraft B77W/H-SDE1E2E3FGHIJ2J3J4J5M1RWXY/LB1D1

Departure

Time 2026-04-25 10:24
Airport Rajiv Gandhi International Airport (VOHS)

Arrival

Time N/A
Airport Bahrain International Airport (OBBI)
Time Latitude Longitude Altitude Speed Heading
2026-04-25 09:57 17.23434 78.42970 1987 ft 0 kts 359°
2026-04-25 10:10 17.23422 78.42970 1987 ft 3 kts 343°
2026-04-25 10:10 17.23407 78.42980 1986 ft 3 kts 307°
2026-04-25 10:10 17.23395 78.42992 1986 ft 3 kts 351°
2026-04-25 10:11 17.23376 78.42995 1986 ft 3 kts 355°
2026-04-25 10:11 17.23355 78.42995 1987 ft 3 kts
2026-04-25 10:11 17.23337 78.42990 1986 ft 3 kts 39°
2026-04-25 10:11 17.23329 78.42980 1987 ft 2 kts 89°
2026-04-25 10:12 17.23329 78.42966 1985 ft 3 kts 90°
2026-04-25 10:12 17.23329 78.42945 1984 ft 2 kts 90°
2026-04-25 10:12 17.23329 78.42939 1984 ft 0 kts 90°
2026-04-25 10:14 17.23329 78.42946 1986 ft 6 kts 90°
2026-04-25 10:15 17.23329 78.43008 1990 ft 9 kts 89°
2026-04-25 10:15 17.23330 78.43074 1991 ft 9 kts 89°
2026-04-25 10:15 17.23322 78.43139 1991 ft 9 kts 118°
2026-04-25 10:15 17.23266 78.43162 1991 ft 9 kts 174°
2026-04-25 10:16 17.23221 78.43202 1991 ft 9 kts 107°
2026-04-25 10:16 17.23218 78.43269 1990 ft 9 kts 89°
2026-04-25 10:16 17.23219 78.43335 1991 ft 9 kts 89°
2026-04-25 10:16 17.23220 78.43402 1991 ft 9 kts 89°
2026-04-25 10:17 17.23221 78.43469 1992 ft 9 kts 89°
2026-04-25 10:17 17.23222 78.43535 1993 ft 9 kts 89°
2026-04-25 10:17 17.23224 78.43602 1994 ft 9 kts 88°
2026-04-25 10:17 17.23225 78.43664 1997 ft 5 kts 89°
2026-04-25 10:18 17.23222 78.43679 1997 ft 0 kts 108°
2026-04-25 10:18 17.23213 78.43696 1998 ft 9 kts 129°
2026-04-25 10:19 17.23149 78.43703 1998 ft 10 kts 179°
2026-04-25 10:19 17.23097 78.43737 1996 ft 10 kts 112°
2026-04-25 10:19 17.23095 78.43807 1997 ft 10 kts 89°
2026-04-25 10:19 17.23096 78.43886 1998 ft 13 kts 89°
2026-04-25 10:20 17.23098 78.44017 2000 ft 24 kts 89°
2026-04-25 10:20 17.23102 78.44218 2001 ft 29 kts 89°
2026-04-25 10:20 17.23105 78.44429 2006 ft 29 kts 89°
2026-04-25 10:20 17.23107 78.44641 2006 ft 29 kts 89°
2026-04-25 10:21 17.23109 78.44849 2007 ft 29 kts 89°
2026-04-25 10:21 17.23114 78.45060 2009 ft 29 kts 90°
2026-04-25 10:21 17.23116 78.45249 2012 ft 17 kts 89°
2026-04-25 10:21 17.23096 78.45311 2013 ft 9 kts 143°
2026-04-25 10:22 17.23034 78.45320 2014 ft 9 kts 180°
2026-04-25 10:22 17.22974 78.45304 2014 ft 9 kts 207°
2026-04-25 10:22 17.22922 78.45266 2014 ft 9 kts 225°
2026-04-25 10:22 17.22910 78.45202 2013 ft 9 kts 269°
2026-04-25 10:23 17.22909 78.45126 2015 ft 17 kts 269°
2026-04-25 10:23 17.22905 78.44781 2010 ft 87 kts 269°
2026-04-25 10:23 17.22895 78.43874 1998 ft 160 kts 270°
2026-04-25 10:23 17.22877 78.42498 2052 ft 211 kts 271°
2026-04-25 10:24 17.22848 78.40962 2736 ft 212 kts 268°
2026-04-25 10:24 17.22814 78.39382 3282 ft 214 kts 269°
2026-04-25 10:24 17.22799 78.37853 4045 ft 210 kts 270°
2026-04-25 10:24 17.22783 78.36236 4225 ft 234 kts 269°
2026-04-25 10:25 17.22760 78.34439 4412 ft 260 kts 269°
2026-04-25 10:25 17.22764 78.32496 4844 ft 270 kts 276°
2026-04-25 10:25 17.23143 78.30554 5363 ft 280 kts 286°
2026-04-25 10:25 17.23721 78.28582 6014 ft 285 kts 288°
2026-04-25 10:26 17.24344 78.26591 6697 ft 290 kts 289°
2026-04-25 10:26 17.24974 78.24575 7414 ft 291 kts 288°
2026-04-25 10:26 17.25595 78.22553 8231 ft 292 kts 288°
2026-04-25 10:26 17.26208 78.20527 8872 ft 298 kts 288°
2026-04-25 10:27 17.26825 78.18464 9692 ft 297 kts 288°
2026-04-25 10:27 17.27443 78.16378 10286 ft 305 kts 289°
2026-04-25 10:27 17.28093 78.14175 10513 ft 329 kts 288°
2026-04-25 10:27 17.28790 78.11798 10685 ft 354 kts 288°
2026-04-25 10:28 17.29536 78.09249 10879 ft 377 kts 288°
2026-04-25 10:28 17.30312 78.06581 11414 ft 388 kts 288°
2026-04-25 10:28 17.31106 78.03843 12100 ft 396 kts 288°
2026-04-25 10:28 17.31910 78.01070 12980 ft 400 kts 288°
2026-04-25 10:29 17.32692 77.98369 13791 ft 405 kts 288°
2026-04-25 10:29 17.33513 77.95535 14508 ft 409 kts 287°
2026-04-25 10:29 17.34332 77.92712 15362 ft 409 kts 286°
2026-04-25 10:29 17.35154 77.89873 16337 ft 407 kts 286°
2026-04-25 10:30 17.35975 77.87026 17170 ft 409 kts 286°
2026-04-25 10:30 17.36805 77.84151 17909 ft 414 kts 286°
2026-04-25 10:30 17.37643 77.81248 18557 ft 418 kts 286°
2026-04-25 10:30 17.38489 77.78319 19164 ft 422 kts 285°
2026-04-25 10:31 17.39343 77.75360 19802 ft 425 kts 285°
2026-04-25 10:31 17.40201 77.72385 20427 ft 429 kts 285°
2026-04-25 10:31 17.41066 77.69382 21049 ft 432 kts 284°
2026-04-25 10:31 17.41939 77.66352 21654 ft 436 kts 284°
2026-04-25 10:32 17.42806 77.63342 22223 ft 439 kts 284°
2026-04-25 10:32 17.43698 77.60233 22829 ft 442 kts 283°
2026-04-25 10:32 17.44394 77.57136 23344 ft 444 kts 277°
2026-04-25 10:32 17.44849 77.53930 23801 ft 446 kts 274°
2026-04-25 10:33 17.45202 77.50690 24316 ft 447 kts 273°
2026-04-25 10:33 17.45535 77.47453 24864 ft 448 kts 273°
2026-04-25 10:33 17.45884 77.44202 25397 ft 449 kts 273°
2026-04-25 10:33 17.46259 77.40941 25883 ft 451 kts 274°
2026-04-25 10:34 17.46656 77.37661 26349 ft 453 kts 274°
2026-04-25 10:34 17.47065 77.34383 26800 ft 455 kts 274°
2026-04-25 10:34 17.47483 77.31094 27264 ft 457 kts 274°
2026-04-25 10:34 17.47900 77.27824 27705 ft 459 kts 274°
2026-04-25 10:35 17.48324 77.24504 28132 ft 461 kts 274°
2026-04-25 10:35 17.48751 77.21154 28535 ft 463 kts 274°
2026-04-25 10:35 17.49175 77.17812 28922 ft 465 kts 273°
2026-04-25 10:35 17.49600 77.14444 29309 ft 466 kts 273°